Live-Position
3D-Globus wird geladen...
Über Starlink 33576
Group: 3 satellites
Beschreibung wird geladen...
Nächste Überflüge
Passes for default location (London). Set your location on the main map for personalized predictions.
Höhenverlauf
Loading altitude history...
No altitude history available
Zweizeiliger Elementsatz
1 62775U 25015T 26126.17830323 .00021461 00000-0 64524-3 0 9992
2 62775 53.1608 55.3754 0001449 92.4956 267.6213 15.34363316 73220
Epoch: 6. Mai 2026 •
Age: 18 hours
Aktueller Status
Höhe 463.2 km
Geschwindigkeit 7.64 km/s
Subsatellitenpunkt 26.14°N,
14°E
Startdatum 21. Jan. 2025
Alter 1.2 years
Typ internet
Startgruppe
Falcon 9 •
Group 11-8 •
27 satellites
Starlink 33596
62758
Starlink 33589 62759
Starlink 33575 62760
Starlink 33584 62761
Starlink 33577 62762
Starlink 33597 62763
Starlink 33579 62764
Starlink 33592 62765
Starlink 33595 62766
Starlink 33572 62767
Starlink 33601 62768
Starlink 33569 62769
Starlink 33594 62770
Starlink 33598 62771
Starlink 33600 62772
Starlink 33567 62773
Starlink 33574 62774
Starlink 33570 62776
Starlink 33591 62777
Starlink 33573 62778
...and 6 more
Technische Details
Klassifizierung Payload
Masse 575.00 kg
Trockenmasse 530.00 kg
Gesamtmasse 575.00 kg
Länge 0.30 m
Durchmesser 4.10 m
Spannweite 29.00 m
Form Box + pan
Hersteller SPXS
Bus-Typ Starlink V2MO
Phasenstatus In Orbit
Besitzer/Staat SPXS/US
Most Searched
Loading...